Location: Unspecified
(0.0000°N, 0.0000°E)
Time: 19:01:11
(UTC+00:00)

Vanguard 2 Rocket - Pass Details

Date: 26 January 2020
Orbit: 554 x 3327 km, 32.9° (Epoch: 20 February)

Event Time Altitude Azimuth Distance (km) Brightness Sun altitude
Rises 15:34:17 0° 268° (W) 6,656 12.1 37.1°
Reaches altitude 10° 15:39:32 10° 257° (WSW) 5,933 12.3 35.9°
Maximum altitude 15:55:06 29° 204° (SSW) 4,857 11.6 32.3°
Drops below altitude 10° 16:10:36 10° 151° (SSE) 5,839 11.0 28.7°
Sets 16:15:51 0° 139° (SE) 6,530 11.1 27.5°
